Time,TemperatureF,DewpointF,PressureIn,WindDirection,WindDirectionDegrees,WindSpeedMPH,WindSpeedGustMPH,Humidity,HourlyPrecipIn,Conditions,Clouds,dailyrainin,SoftwareType,DateUTC
2013-08-08 00:00:00,58.3,56.0,30.01,WSW,258,2.0,5.0,92,0.00,,,0.00,Wunderground v.1.15,2013-08-08 07:00:00,
2013-08-08 00:05:00,58.3,56.0,30.01,WSW,240,2.0,5.0,92,0.00,,,0.00,Wunderground v.1.15,2013-08-08 07:05:00,
2013-08-08 00:10:00,58.4,56.1,30.01,WNW,289,2.0,2.0,92,0.00,,,0.00,Wunderground v.1.15,2013-08-08 07:10:00,
2013-08-08 00:20:00,58.3,56.0,30.01,WSW,248,3.0,3.0,92,0.00,,,0.00,Wunderground v.1.15,2013-08-08 07:20:00,
2013-08-08 00:30:00,58.2,55.9,30.01,West,262,2.0,3.0,92,0.00,,,0.00,Wunderground v.1.15,2013-08-08 07:30:00,
2013-08-08 00:40:00,58.2,55.9,30.01,West,262,2.0,3.0,92,0.00,,,0.00,Wunderground v.1.15,2013-08-08 07:40:00,
2013-08-08 00:50:00,58.0,56.0,30.01,WSW,243,3.0,3.0,93,0.00,,,0.00,Wunderground v.1.15,2013-08-08 07:50:00,
2013-08-08 01:00:00,57.9,55.9,30.00,SW,222,2.0,5.0,93,0.00,,,0.00,Wunderground v.1.15,2013-08-08 08:00:00,
2013-08-08 01:10:00,57.8,55.8,30.00,West,276,3.0,3.0,93,0.00,,,0.00,Wunderground v.1.15,2013-08-08 08:10:00,
2013-08-08 01:20:00,57.7,55.7,30.00,SW,226,2.0,5.0,93,0.00,,,0.00,Wunderground v.1.15,2013-08-08 08:20:00,
2013-08-08 01:25:00,57.7,55.7,30.00,WSW,241,2.0,5.0,93,0.00,,,0.00,Wunderground v.1.15,2013-08-08 08:25:00,
2013-08-08 01:30:00,57.7,55.7,30.00,SW,221,2.0,2.0,93,0.00,,,0.00,Wunderground v.1.15,2013-08-08 08:30:00,
2013-08-08 01:40:00,57.8,55.8,30.00,West,278,2.0,2.0,93,0.00,,,0.00,Wunderground v.1.15,2013-08-08 08:40:00,
2013-08-08 01:45:00,57.8,55.8,29.99,WSW,255,0.0,5.0,93,0.00,,,0.00,Wunderground v.1.15,2013-08-08 08:45:00,
2013-08-08 01:55:00,57.8,55.8,29.99,West,262,0.0,5.0,93,0.00,,,0.00,Wunderground v.1.15,2013-08-08 08:55:00,
2013-08-08 02:00:00,57.8,55.8,29.99,SW,226,1.0,5.0,93,0.00,,,0.00,Wunderground v.1.15,2013-08-08 09:00:00,
2013-08-08 02:10:00,57.8,55.8,29.99,West,263,2.0,2.0,93,0.00,,,0.00,Wunderground v.1.15,2013-08-08 09:10:00,
2013-08-08 02:15:00,57.8,55.8,29.99,NW,310,1.0,5.0,93,0.00,,,0.00,Wunderground v.1.15,2013-08-08 09:15:00,
2013-08-08 02:25:00,57.9,55.9,29.99,West,262,1.0,5.0,93,0.00,,,0.00,Wunderground v.1.15,2013-08-08 09:25:00,
2013-08-08 02:30:00,57.9,55.6,29.99,WNW,282,1.0,5.0,92,0.00,,,0.00,Wunderground v.1.15,2013-08-08 09:30:00,
2013-08-08 02:35:00,57.9,55.6,29.98,NW,304,1.0,5.0,92,0.00,,,0.00,Wunderground v.1.15,2013-08-08 09:35:00,
2013-08-08 02:40:00,57.9,55.6,29.98,NW,309,1.0,5.0,92,0.00,,,0.00,Wunderground v.1.15,2013-08-08 09:40:00,
2013-08-08 02:45:00,57.9,55.9,29.98,WNW,290,1.0,5.0,93,0.00,,,0.00,Wunderground v.1.15,2013-08-08 09:45:00,
2013-08-08 02:55:00,57.9,55.6,29.98,West,276,0.0,5.0,92,0.00,,,0.00,Wunderground v.1.15,2013-08-08 09:55:00,
2013-08-08 03:00:00,57.8,55.5,29.98,West,276,1.0,1.0,92,0.00,,,0.00,Wunderground v.1.15,2013-08-08 10:00:00,
2013-08-08 03:05:00,57.9,55.6,29.98,West,276,0.0,5.0,92,0.00,,,0.00,Wunderground v.1.15,2013-08-08 10:05:00,
2013-08-08 03:10:00,57.9,55.6,29.98,West,274,1.0,1.0,92,0.00,,,0.00,Wunderground v.1.15,2013-08-08 10:10:00,
2013-08-08 03:20:00,57.9,55.6,29.98,West,274,0.0,5.0,92,0.00,,,0.00,Wunderground v.1.15,2013-08-08 10:20:00,
2013-08-08 03:30:00,57.9,55.6,29.98,West,274,0.0,5.0,92,0.00,,,0.00,Wunderground v.1.15,2013-08-08 10:30:00,
2013-08-08 03:35:00,57.9,55.6,29.98,West,273,1.0,5.0,92,0.00,,,0.00,Wunderground v.1.15,2013-08-08 10:35:00,
2013-08-08 03:45:00,57.9,55.6,29.98,West,271,0.0,5.0,92,0.00,,,0.00,Wunderground v.1.15,2013-08-08 10:45:00,
2013-08-08 03:55:00,58.0,55.7,29.97,West,265,0.0,5.0,92,0.00,,,0.00,Wunderground v.1.15,2013-08-08 10:55:00,
2013-08-08 04:05:00,58.0,55.4,29.97,South,175,1.0,5.0,91,0.00,,,0.00,Wunderground v.1.15,2013-08-08 11:05:00,
2013-08-08 04:10:00,58.0,55.4,29.97,SSE,165,1.0,5.0,91,0.00,,,0.00,Wunderground v.1.15,2013-08-08 11:10:00,
2013-08-08 04:20:00,58.0,55.4,29.97,SSW,200,3.0,3.0,91,0.00,,,0.00,Wunderground v.1.15,2013-08-08 11:20:00,
2013-08-08 04:25:00,58.0,55.4,29.97,South,191,2.0,5.0,91,0.00,,,0.00,Wunderground v.1.15,2013-08-08 11:25:00,
2013-08-08 04:35:00,58.0,55.4,29.96,South,184,0.0,5.0,91,0.00,,,0.00,Wunderground v.1.15,2013-08-08 11:35:00,
2013-08-08 04:45:00,58.1,55.5,29.96,WSW,245,1.0,5.0,91,0.00,,,0.00,Wunderground v.1.15,2013-08-08 11:45:00,
2013-08-08 04:50:00,58.1,55.5,29.96,SW,232,1.0,5.0,91,0.00,,,0.00,Wunderground v.1.15,2013-08-08 11:50:00,
2013-08-08 05:00:00,58.2,55.6,29.96,SSW,207,1.0,5.0,91,0.00,,,0.00,Wunderground v.1.15,2013-08-08 12:00:00,
2013-08-08 05:05:00,58.2,55.6,29.96,SSE,167,1.0,5.0,91,0.00,,,0.00,Wunderground v.1.15,2013-08-08 12:05:00,
2013-08-08 05:10:00,58.2,55.6,29.96,SSE,167,1.0,5.0,91,0.00,,,0.00,Wunderground v.1.15,2013-08-08 12:10:00,
2013-08-08 05:20:00,58.3,55.7,29.96,SW,221,3.0,5.0,91,0.00,,,0.00,Wunderground v.1.15,2013-08-08 12:20:00,
2013-08-08 05:30:00,58.4,55.8,29.96,SW,236,2.0,5.0,91,0.00,,,0.00,Wunderground v.1.15,2013-08-08 12:30:00,
2013-08-08 05:35:00,58.4,55.8,29.96,WSW,250,2.0,5.0,91,0.00,,,0.00,Wunderground v.1.15,2013-08-08 12:35:00,
2013-08-08 05:45:00,58.5,55.9,29.96,WSW,240,2.0,5.0,91,0.00,,,0.00,Wunderground v.1.15,2013-08-08 12:45:00,
2013-08-08 05:55:00,58.4,55.8,29.97,WNW,282,2.0,5.0,91,0.00,,,0.00,Wunderground v.1.15,2013-08-08 12:55:00,
2013-08-08 06:00:00,58.4,55.8,29.97,South,187,2.0,5.0,91,0.00,,,0.00,Wunderground v.1.15,2013-08-08 13:00:00,
2013-08-08 06:05:00,58.4,55.8,29.97,SSW,213,2.0,5.0,91,0.00,,,0.00,Wunderground v.1.15,2013-08-08 13:05:00,
2013-08-08 06:10:00,58.5,55.9,29.97,SW,235,2.0,5.0,91,0.00,,,0.00,Wunderground v.1.15,2013-08-08 13:10:00,
2013-08-08 06:15:00,58.4,56.1,29.97,SW,228,2.0,5.0,92,0.00,,,0.00,Wunderground v.1.15,2013-08-08 13:15:00,
2013-08-08 06:20:00,58.4,56.1,29.97,SW,234,2.0,2.0,92,0.00,,,0.00,Wunderground v.1.15,2013-08-08 13:20:00,
2013-08-08 06:30:00,58.3,56.0,29.97,SW,217,1.0,5.0,92,0.00,,,0.00,Wunderground v.1.15,2013-08-08 13:30:00,
2013-08-08 06:35:00,58.3,56.0,29.97,SW,232,1.0,5.0,92,0.00,,,0.00,Wunderground v.1.15,2013-08-08 13:35:00,
2013-08-08 06:40:00,58.2,55.9,29.97,WSW,238,1.0,1.0,92,0.00,,,0.00,Wunderground v.1.15,2013-08-08 13:40:00,
2013-08-08 06:45:00,58.2,55.9,29.97,West,262,1.0,5.0,92,0.00,,,0.00,Wunderground v.1.15,2013-08-08 13:45:00,
2013-08-08 06:50:00,58.2,55.9,29.97,West,259,1.0,5.0,92,0.00,,,0.00,Wunderground v.1.15,2013-08-08 13:50:00,
2013-08-08 06:55:00,58.2,55.9,29.97,WSW,255,1.0,5.0,92,0.00,,,0.00,Wunderground v.1.15,2013-08-08 13:55:00,
2013-08-08 07:05:00,58.2,55.9,29.98,WSW,243,0.0,5.0,92,0.00,,,0.00,Wunderground v.1.15,2013-08-08 14:05:00,
2013-08-08 07:15:00,58.3,56.0,29.98,SW,226,3.0,5.0,92,0.00,,,0.00,Wunderground v.1.15,2013-08-08 14:15:00,
2013-08-08 07:20:00,58.3,56.0,29.98,WSW,255,3.0,3.0,92,0.00,,,0.00,Wunderground v.1.15,2013-08-08 14:20:00,
2013-08-08 07:30:00,58.4,56.1,29.98,SW,224,2.0,5.0,92,0.00,,,0.00,Wunderground v.1.15,2013-08-08 14:30:00,
2013-08-08 07:35:00,58.3,56.0,29.98,West,266,3.0,5.0,92,0.00,,,0.00,Wunderground v.1.15,2013-08-08 14:35:00,
2013-08-08 07:45:00,58.3,56.0,29.98,SW,225,3.0,5.0,92,0.00,,,0.00,Wunderground v.1.15,2013-08-08 14:45:00,
2013-08-08 07:55:00,58.2,55.9,29.98,West,268,4.0,6.0,92,0.00,,,0.00,Wunderground v.1.15,2013-08-08 14:55:00,
2013-08-08 08:05:00,58.1,55.8,29.98,NW,307,2.0,5.0,92,0.00,,,0.00,Wunderground v.1.15,2013-08-08 15:05:00,
2013-08-08 08:10:00,58.1,55.8,29.98,SW,233,3.0,4.0,92,0.00,,,0.00,Wunderground v.1.15,2013-08-08 15:10:00,
2013-08-08 08:20:00,58.1,55.8,29.98,WSW,243,2.0,2.0,92,0.00,,,0.00,Wunderground v.1.15,2013-08-08 15:20:00,
2013-08-08 08:30:00,58.1,55.8,29.99,West,271,2.0,2.0,92,0.00,,,0.00,Wunderground v.1.15,2013-08-08 15:30:00,
2013-08-08 08:40:00,58.2,55.9,29.99,SSW,211,2.0,6.0,92,0.00,,,0.00,Wunderground v.1.15,2013-08-08 15:40:00,
2013-08-08 08:50:00,58.1,55.8,29.99,SW,230,4.0,6.0,92,0.00,,,0.00,Wunderground v.1.15,2013-08-08 15:50:00,
2013-08-08 08:55:00,58.0,55.4,29.99,WSW,240,5.0,6.0,91,0.00,,,0.00,Wunderground v.1.15,2013-08-08 15:55:00,
2013-08-08 09:05:00,58.0,55.4,29.99,SW,236,4.0,5.0,91,0.00,,,0.00,Wunderground v.1.15,2013-08-08 16:05:00,
2013-08-08 09:15:00,58.3,55.4,29.99,SW,223,3.0,5.0,90,0.00,,,0.00,Wunderground v.1.15,2013-08-08 16:15:00,
2013-08-08 09:25:00,58.6,55.7,29.99,NW,311,2.0,5.0,90,0.00,,,0.00,Wunderground v.1.15,2013-08-08 16:25:00,
2013-08-08 09:30:00,58.7,55.5,29.99,West,260,3.0,5.0,89,0.00,,,0.00,Wunderground v.1.15,2013-08-08 16:30:00,
2013-08-08 09:35:00,58.9,55.4,29.99,South,187,3.0,5.0,88,0.00,,,0.00,Wunderground v.1.15,2013-08-08 16:35:00,
2013-08-08 09:45:00,59.3,55.7,29.99,WSW,257,3.0,4.0,88,0.00,,,0.00,Wunderground v.1.15,2013-08-08 16:45:00,
2013-08-08 09:50:00,59.4,55.8,29.99,SW,228,3.0,3.0,88,0.00,,,0.00,Wunderground v.1.15,2013-08-08 16:50:00,
2013-08-08 09:55:00,59.4,55.8,29.99,NW,309,3.0,5.0,88,0.00,,,0.00,Wunderground v.1.15,2013-08-08 16:55:00,
2013-08-08 10:05:00,59.7,55.8,29.99,NW,319,2.0,5.0,87,0.00,,,0.00,Wunderground v.1.15,2013-08-08 17:05:00,
2013-08-08 10:10:00,59.8,55.9,29.99,West,264,1.0,5.0,87,0.00,,,0.00,Wunderground v.1.15,2013-08-08 17:10:00,
2013-08-08 10:15:00,60.0,56.1,29.99,NW,314,1.0,5.0,87,0.00,,,0.00,Wunderground v.1.15,2013-08-08 17:15:00,
2013-08-08 10:20:00,60.2,56.0,29.99,SW,220,2.0,5.0,86,0.00,,,0.00,Wunderground v.1.15,2013-08-08 17:20:00,
2013-08-08 10:25:00,60.5,56.3,29.99,West,264,2.0,5.0,86,0.00,,,0.00,Wunderground v.1.15,2013-08-08 17:25:00,
2013-08-08 10:30:00,60.8,56.3,29.99,SSE,168,2.0,2.0,85,0.00,,,0.00,Wunderground v.1.15,2013-08-08 17:30:00,
2013-08-08 10:40:00,61.3,56.4,29.99,WSW,241,2.0,5.0,84,0.00,,,0.00,Wunderground v.1.15,2013-08-08 17:40:00,
2013-08-08 10:50:00,61.8,56.6,29.99,NW,305,2.0,5.0,83,0.00,,,0.00,Wunderground v.1.15,2013-08-08 17:50:00,
2013-08-08 10:55:00,62.3,56.7,29.99,West,264,2.0,5.0,82,0.00,,,0.00,Wunderground v.1.15,2013-08-08 17:55:00,
2013-08-08 11:00:00,62.8,56.9,29.99,SW,231,2.0,5.0,81,0.00,,,0.00,Wunderground v.1.15,2013-08-08 18:00:00,
2013-08-08 11:10:00,62.9,57.0,29.99,West,276,4.0,4.0,81,0.00,,,0.00,Wunderground v.1.15,2013-08-08 18:10:00,
2013-08-08 11:15:00,63.2,56.9,29.99,South,188,2.0,5.0,80,0.00,,,0.00,Wunderground v.1.15,2013-08-08 18:15:00,
2013-08-08 11:20:00,63.5,57.2,29.99,SSW,202,2.0,5.0,80,0.00,,,0.00,Wunderground v.1.15,2013-08-08 18:20:00,
2013-08-08 11:25:00,63.8,57.2,29.99,North,360,3.0,5.0,79,0.00,,,0.00,Wunderground v.1.15,2013-08-08 18:25:00,
2013-08-08 11:35:00,64.3,57.3,29.99,South,185,3.0,5.0,78,0.00,,,0.00,Wunderground v.1.15,2013-08-08 18:35:00,
2013-08-08 11:45:00,64.9,57.5,29.99,SW,221,2.0,5.0,77,0.00,,,0.00,Wunderground v.1.15,2013-08-08 18:45:00,
2013-08-08 11:50:00,65.2,57.4,29.98,WSW,250,1.0,5.0,76,0.00,,,0.00,Wunderground v.1.15,2013-08-08 18:50:00,
2013-08-08 11:55:00,65.6,57.8,29.99,NNW,338,3.0,5.0,76,0.00,,,0.00,Wunderground v.1.15,2013-08-08 18:55:00,
2013-08-08 12:00:00,66.4,58.2,29.98,SSE,153,2.0,2.0,75,0.00,,,0.00,Wunderground v.1.15,2013-08-08 19:00:00,
2013-08-08 12:05:00,66.7,57.8,29.98,South,186,2.0,2.0,73,0.00,,,0.00,Wunderground v.1.15,2013-08-08 19:05:00,
2013-08-08 12:15:00,66.5,58.0,29.98,WSW,238,3.0,7.0,74,0.00,,,0.00,Wunderground v.1.15,2013-08-08 19:15:00,
2013-08-08 12:25:00,67.4,57.7,29.98,WSW,252,3.0,7.0,71,0.00,,,0.00,Wunderground v.1.15,2013-08-08 19:25:00,
2013-08-08 12:30:00,67.3,57.6,29.98,SW,233,4.0,5.0,71,0.00,,,0.00,Wunderground v.1.15,2013-08-08 19:30:00,
2013-08-08 12:40:00,67.9,57.8,29.97,SW,224,3.0,3.0,70,0.00,,,0.00,Wunderground v.1.15,2013-08-08 19:40:00,
2013-08-08 12:50:00,68.3,57.3,29.97,SW,235,4.0,4.0,68,0.00,,,0.00,Wunderground v.1.15,2013-08-08 19:50:00,
2013-08-08 13:00:00,69.0,57.6,29.97,SW,234,5.0,5.0,67,0.00,,,0.00,Wunderground v.1.15,2013-08-08 20:00:00,
2013-08-08 13:10:00,69.2,57.8,29.97,SSW,193,5.0,5.0,67,0.00,,,0.00,Wunderground v.1.15,2013-08-08 20:10:00,
2013-08-08 13:20:00,69.2,58.2,29.97,SW,233,6.0,6.0,68,0.00,,,0.00,Wunderground v.1.15,2013-08-08 20:20:00,
2013-08-08 13:30:00,69.3,57.9,29.97,South,182,5.0,5.0,67,0.00,,,0.00,Wunderground v.1.15,2013-08-08 20:30:00,
2013-08-08 13:40:00,69.9,58.0,29.97,SSW,195,6.0,9.0,66,0.00,,,0.00,Wunderground v.1.15,2013-08-08 20:40:00,
2013-08-08 13:50:00,69.7,58.3,29.96,SW,229,7.0,9.0,67,0.00,,,0.00,Wunderground v.1.15,2013-08-08 20:50:00,
2013-08-08 14:00:00,69.7,58.3,29.96,SW,226,7.0,8.0,67,0.00,,,0.00,Wunderground v.1.15,2013-08-08 21:00:00,
2013-08-08 14:10:00,69.8,58.3,29.96,WSW,240,7.0,9.0,67,0.00,,,0.00,Wunderground v.1.15,2013-08-08 21:10:00,
2013-08-08 14:20:00,69.1,58.1,29.96,SW,233,9.0,10.0,68,0.00,,,0.00,Wunderground v.1.15,2013-08-08 21:20:00,
2013-08-08 14:25:00,68.7,57.7,29.96,WSW,240,10.0,10.0,68,0.00,,,0.00,Wunderground v.1.15,2013-08-08 21:25:00,
2013-08-08 14:35:00,68.9,57.9,29.97,SSW,205,9.0,10.0,68,0.00,,,0.00,Wunderground v.1.15,2013-08-08 21:35:00,
2013-08-08 14:40:00,68.9,57.9,29.96,SW,233,9.0,9.0,68,0.00,,,0.00,Wunderground v.1.15,2013-08-08 21:40:00,
2013-08-08 14:50:00,68.3,57.7,29.96,SW,236,8.0,12.0,69,0.00,,,0.00,Wunderground v.1.15,2013-08-08 21:50:00,
2013-08-08 14:55:00,68.6,57.6,29.96,SW,232,8.0,12.0,68,0.00,,,0.00,Wunderground v.1.15,2013-08-08 21:55:00,
2013-08-08 15:05:00,69.4,57.5,29.96,WSW,249,7.0,9.0,66,0.00,,,0.00,Wunderground v.1.15,2013-08-08 22:05:00,
2013-08-08 15:15:00,69.8,57.9,29.95,WSW,245,7.0,7.0,66,0.00,,,0.00,Wunderground v.1.15,2013-08-08 22:15:00,
2013-08-08 15:25:00,70.1,57.8,29.95,West,278,7.0,7.0,65,0.00,,,0.00,Wunderground v.1.15,2013-08-08 22:25:00,
2013-08-08 15:35:00,69.7,57.4,29.95,SW,236,7.0,7.0,65,0.00,,,0.00,Wunderground v.1.15,2013-08-08 22:35:00,
2013-08-08 15:45:00,68.8,57.4,29.95,SW,226,8.0,10.0,67,0.00,,,0.00,Wunderground v.1.15,2013-08-08 22:45:00,
2013-08-08 15:55:00,69.5,58.1,29.95,West,274,7.0,8.0,67,0.00,,,0.00,Wunderground v.1.15,2013-08-08 22:55:00,
2013-08-08 16:00:00,70.1,57.8,29.94,West,260,6.0,6.0,65,0.00,,,0.00,Wunderground v.1.15,2013-08-08 23:00:00,
2013-08-08 16:05:00,69.9,57.6,29.94,WSW,252,7.0,7.0,65,0.00,,,0.00,Wunderground v.1.15,2013-08-08 23:05:00,
2013-08-08 16:15:00,69.3,57.9,29.94,SSW,195,8.0,10.0,67,0.00,,,0.00,Wunderground v.1.15,2013-08-08 23:15:00,
2013-08-08 16:20:00,69.5,57.6,29.94,NW,312,7.0,7.0,66,0.00,,,0.00,Wunderground v.1.15,2013-08-08 23:20:00,
2013-08-08 16:35:00,69.3,57.0,29.94,NW,312,7.0,10.0,65,0.00,,,0.00,Wunderground v.1.15,2013-08-08 23:35:00,
2013-08-08 16:40:00,69.7,57.0,29.94,NW,314,6.0,6.0,64,0.00,,,0.00,Wunderground v.1.15,2013-08-08 23:40:00,
2013-08-08 16:45:00,69.8,57.1,29.94,WSW,250,6.0,6.0,64,0.00,,,0.00,Wunderground v.1.15,2013-08-08 23:45:00,
2013-08-08 16:55:00,70.1,56.9,29.93,SW,233,5.0,9.0,63,0.00,,,0.00,Wunderground v.1.15,2013-08-08 23:55:00,
2013-08-08 17:05:00,69.2,56.5,29.93,West,265,6.0,7.0,64,0.00,,,0.00,Wunderground v.1.15,2013-08-09 00:05:00,
2013-08-08 17:15:00,67.8,56.4,29.93,WNW,299,7.0,7.0,67,0.00,,,0.00,Wunderground v.1.15,2013-08-09 00:15:00,
2013-08-08 17:20:00,67.8,56.4,29.93,NW,314,6.0,6.0,67,0.00,,,0.00,Wunderground v.1.15,2013-08-09 00:20:00,
2013-08-08 17:30:00,67.6,56.2,29.93,SW,233,6.0,13.0,67,0.00,,,0.00,Wunderground v.1.15,2013-08-09 00:30:00,
2013-08-08 17:35:00,66.9,56.0,29.93,SW,217,7.0,13.0,68,0.00,,,0.00,Wunderground v.1.15,2013-08-09 00:35:00,
2013-08-08 17:45:00,66.4,55.9,29.93,SSW,198,7.0,13.0,69,0.00,,,0.00,Wunderground v.1.15,2013-08-09 00:45:00,
2013-08-08 17:55:00,66.6,55.7,29.93,WNW,285,5.0,13.0,68,0.00,,,0.00,Wunderground v.1.15,2013-08-09 00:55:00,
2013-08-08 18:00:00,66.1,55.6,29.93,SW,224,6.0,13.0,69,0.00,,,0.00,Wunderground v.1.15,2013-08-09 01:00:00,
2013-08-08 18:10:00,64.9,55.3,29.93,WNW,285,6.0,7.0,71,0.00,,,0.00,Wunderground v.1.15,2013-08-09 01:10:00,
2013-08-08 18:20:00,63.1,54.7,29.93,SW,219,8.0,8.0,74,0.00,,,0.00,Wunderground v.1.15,2013-08-09 01:20:00,
2013-08-08 18:30:00,62.5,54.8,29.93,SW,233,7.0,7.0,76,0.00,,,0.00,Wunderground v.1.15,2013-08-09 01:30:00,
2013-08-08 18:35:00,61.7,54.4,29.93,West,263,8.0,8.0,77,0.00,,,0.00,Wunderground v.1.15,2013-08-09 01:35:00,
2013-08-08 18:45:00,60.8,54.6,29.93,SW,233,6.0,7.0,80,0.00,,,0.00,Wunderground v.1.15,2013-08-09 01:45:00,
2013-08-08 18:55:00,60.3,54.4,29.93,WSW,253,4.0,5.0,81,0.00,,,0.00,Wunderground v.1.15,2013-08-09 01:55:00,
2013-08-08 19:05:00,59.6,54.1,29.93,WNW,303,5.0,8.0,82,0.00,,,0.00,Wunderground v.1.15,2013-08-09 02:05:00,
2013-08-08 19:15:00,59.2,54.4,29.93,West,271,5.0,6.0,84,0.00,,,0.00,Wunderground v.1.15,2013-08-09 02:15:00,
2013-08-08 19:20:00,59.1,54.3,29.93,WSW,258,4.0,8.0,84,0.00,,,0.00,Wunderground v.1.15,2013-08-09 02:20:00,
2013-08-08 19:25:00,58.9,54.1,29.93,West,274,4.0,8.0,84,0.00,,,0.00,Wunderground v.1.15,2013-08-09 02:25:00,
2013-08-08 19:30:00,58.7,53.9,29.93,WNW,300,5.0,5.0,84,0.00,,,0.00,Wunderground v.1.15,2013-08-09 02:30:00,
2013-08-08 19:40:00,58.0,53.5,29.93,WSW,250,5.0,5.0,85,0.00,,,0.00,Wunderground v.1.15,2013-08-09 02:40:00,
2013-08-08 19:45:00,57.8,53.6,29.93,West,261,6.0,6.0,86,0.00,,,0.00,Wunderground v.1.15,2013-08-09 02:45:00,
2013-08-08 19:55:00,57.5,53.7,29.93,West,278,5.0,5.0,87,0.00,,,0.00,Wunderground v.1.15,2013-08-09 02:55:00,
2013-08-08 20:05:00,57.4,53.6,29.93,SW,227,4.0,9.0,87,0.00,,,0.00,Wunderground v.1.15,2013-08-09 03:05:00,
2013-08-08 20:15:00,57.3,53.8,29.93,SW,227,4.0,11.0,88,0.00,,,0.00,Wunderground v.1.15,2013-08-09 03:15:00,
2013-08-08 20:20:00,57.3,53.8,29.93,WSW,243,4.0,4.0,88,0.00,,,0.00,Wunderground v.1.15,2013-08-09 03:20:00,
2013-08-08 20:30:00,57.3,53.8,29.93,West,262,4.0,11.0,88,0.00,,,0.00,Wunderground v.1.15,2013-08-09 03:30:00,
2013-08-08 20:35:00,57.1,53.9,29.94,WSW,243,5.0,11.0,89,0.00,,,0.00,Wunderground v.1.15,2013-08-09 03:35:00,
2013-08-08 20:45:00,56.9,54.0,29.94,SW,230,5.0,11.0,90,0.00,,,0.00,Wunderground v.1.15,2013-08-09 03:45:00,
2013-08-08 20:50:00,56.9,54.0,29.94,SW,223,5.0,5.0,90,0.00,,,0.00,Wunderground v.1.15,2013-08-09 03:50:00,
2013-08-08 20:55:00,56.8,53.9,29.94,WSW,237,5.0,11.0,90,0.00,,,0.00,Wunderground v.1.15,2013-08-09 03:55:00,
2013-08-08 21:00:00,56.6,53.7,29.95,WSW,251,4.0,11.0,90,0.00,,,0.00,Wunderground v.1.15,2013-08-09 04:00:00,
2013-08-08 21:05:00,56.6,53.7,29.95,WSW,255,4.0,11.0,90,0.00,,,0.00,Wunderground v.1.15,2013-08-09 04:05:00,
2013-08-08 21:10:00,56.6,54.0,29.95,West,268,5.0,5.0,91,0.00,,,0.00,Wunderground v.1.15,2013-08-09 04:10:00,
2013-08-08 21:20:00,56.4,53.8,29.95,WSW,251,5.0,5.0,91,0.00,,,0.00,Wunderground v.1.15,2013-08-09 04:20:00,
2013-08-08 21:25:00,56.4,53.8,29.95,SW,229,4.0,11.0,91,0.00,,,0.00,Wunderground v.1.15,2013-08-09 04:25:00,
2013-08-08 21:30:00,56.3,53.7,29.96,SW,221,5.0,5.0,91,0.00,,,0.00,Wunderground v.1.15,2013-08-09 04:30:00,
2013-08-08 21:35:00,56.4,53.8,29.96,WSW,243,5.0,11.0,91,0.00,,,0.00,Wunderground v.1.15,2013-08-09 04:35:00,
2013-08-08 21:45:00,56.4,53.8,29.96,West,260,3.0,5.0,91,0.00,,,0.00,Wunderground v.1.15,2013-08-09 04:45:00,
2013-08-08 21:50:00,56.2,53.3,29.96,West,259,4.0,11.0,90,0.00,,,0.00,Wunderground v.1.15,2013-08-09 04:50:00,
2013-08-08 21:55:00,56.1,53.5,29.96,West,264,4.0,11.0,91,0.00,,,0.00,Wunderground v.1.15,2013-08-09 04:55:00,
2013-08-08 22:05:00,56.1,53.5,29.96,SW,224,2.0,11.0,91,0.00,,,0.00,Wunderground v.1.15,2013-08-09 05:05:00,
2013-08-08 22:10:00,56.1,53.8,29.96,WSW,238,3.0,4.0,92,0.00,,,0.00,Wunderground v.1.15,2013-08-09 05:10:00,
2013-08-08 22:20:00,56.0,53.7,29.96,WSW,255,4.0,4.0,92,0.00,,,0.00,Wunderground v.1.15,2013-08-09 05:20:00,
2013-08-08 22:25:00,56.0,53.7,29.96,WSW,246,3.0,4.0,92,0.00,,,0.00,Wunderground v.1.15,2013-08-09 05:25:00,
2013-08-08 22:35:00,56.0,53.7,29.96,WSW,250,4.0,4.0,92,0.00,,,0.00,Wunderground v.1.15,2013-08-09 05:35:00,
2013-08-08 22:45:00,55.8,53.8,29.95,SSW,194,4.0,6.0,93,0.00,,,0.00,Wunderground v.1.15,2013-08-09 05:45:00,
2013-08-08 22:55:00,55.7,53.7,29.95,WSW,243,5.0,6.0,93,0.00,,,0.00,Wunderground v.1.15,2013-08-09 05:55:00,
2013-08-08 23:00:00,55.6,53.9,29.95,SW,232,5.0,6.0,94,0.00,,,0.00,Wunderground v.1.15,2013-08-09 06:00:00,
2013-08-08 23:10:00,55.4,53.7,29.95,West,267,3.0,5.0,94,0.00,,,0.00,Wunderground v.1.15,2013-08-09 06:10:00,
2013-08-08 23:15:00,55.3,53.6,29.95,WSW,256,3.0,5.0,94,0.00,,,0.00,Wunderground v.1.15,2013-08-09 06:15:00,
2013-08-08 23:25:00,55.2,53.5,29.95,WSW,250,4.0,5.0,94,0.00,,,0.00,Wunderground v.1.15,2013-08-09 06:25:00,
2013-08-08 23:30:00,55.2,53.5,29.95,WSW,240,4.0,5.0,94,0.00,,,0.00,Wunderground v.1.15,2013-08-09 06:30:00,
2013-08-08 23:40:00,55.2,53.5,29.95,SSW,212,4.0,4.0,94,0.00,,,0.00,Wunderground v.1.15,2013-08-09 06:40:00,
2013-08-08 23:45:00,55.1,53.4,29.95,WSW,250,3.0,5.0,94,0.00,,,0.00,Wunderground v.1.15,2013-08-09 06:45:00,
2013-08-08 23:55:00,55.1,53.4,29.95,SW,234,3.0,5.0,94,0.00,,,0.00,Wunderground v.1.15,2013-08-09 06:55:00,